Wind_Speed
52 49 47 48 48 41 51 48 47 50 41 48 46 39 35 35 41 45 45 47 47 50 52 54 57 59 58 59 61 64 66 67 68 74 77 78 77 77 77 76 76 75 74
58 52 53 49 51 59 53 45 48 41 39 39 33 32 36 42 43 45 47 49 50 52 55 57 57 56 58 62 64 66 67 73 76 78 78 78 79 79 79 76 73 71 70
47 42 43 50 54 55 51 40 43 39 37 31 32 37 41 41 45 49 51 50 52 54 56 56 56 59 61 64 65 68 73 79 80 80 79 80 80 79 75 73 73 75 79
47 47 49 49 48 48 39 41 42 36 30 34 36 36 43 46 48 48 49 52 54 54 54 56 60 62 64 65 70 74 79 81 82 82 81 81 78 76 76 79 81 84 87
40 46 47 44 44 39 33 34 28 29 31 32 39 44 47 45 46 49 51 53 53 54 57 61 63 64 68 70 75 80 82 82 82 80 77 76 78 81 85 87 91 93 98
42 40 38 36 33 27 28 26 26 29 36 41 46 43 43 46 48 51 50 52 55 58 61 64 66 70 71 77 81 81 80 79 76 76 80 83 86 88 93 98 102 106 106
33 33 31 23 22 25 23 27 34 40 42 39 39 41 44 47 48 49 51 55 58 61 64 67 70 72 77 78 77 77 76 76 80 85 87 90 95 100 104 107 108 109 110
22 18 17 13 14 19 30 36 40 35 36 38 41 43 45 45 47 50 55 57 59 64 66 69 75 77 76 75 75 76 79 82 84 88 94 99 103 106 108 109 109 108 106
12 8 13 22 26 30 31 30 32 35 38 40 41 42 44 47 49 54 56 60 63 65 70 74 73 74 73 74 76 80 83 87 91 96 100 102 104 105 105 105 103 103 101
10 16 23 26 29 28 28 31 33 35 37 37 40 43 44 49 52 56 60 62 66 71 72 71 72 72 73 78 79 84 89 94 97 99 102 105 104 100 98 98 97 91 86
18 20 22 22 24 29 32 33 33 33 36 38 41 46 49 52 54 57 61 65 69 70 70 69 70 74 77 81 85 90 95 98 100 102 103 100 96 93 92 86 79 75 75
15 17 21 24 26 28 30 32 33 34 39 42 45 49 51 54 57 60 64 67 67 67 66 70 73 75 80 85 90 94 99 100 101 101 96 90 89 85 78 69 67 71 75
17 22 25 26 29 32 32 32 35 39 42 45 47 50 53 56 60 62 63 63 62 66 70 72 76 80 85 89 94 98 100 101 100 93 87 85 78 69 63 63 66 68 73
21 24 27 27 27 31 34 36 39 41 43 47 50 53 56 57 58 58 57 61 66 69 71 75 80 84 88 93 97 100 100 99 91 84 81 72 61 58 60 63 66 68 71
23 24 27 30 32 34 36 39 41 44 47 50 53 53 53 52 51 56 61 65 68 72 75 79 83 87 93 98 99 99 98 88 81 78 69 59 55 58 62 65 69 72 73
21 24 27 29 33 36 39 42 45 47 49 50 50 49 47 50 56 60 65 68 70 73 78 82 87 92 97 98 98 99 87 80 76 70 60 53 55 60 61 67 70 73 73
26 29 33 35 39 41 43 43 44 45 45 45 43 45 50 55 60 64 67 69 71 76 81 86 91 96 98 98 100 88 79 76 71 63 55 52 55 60 63 66 69 71 71
34 36 37 37 37 38 40 41 42 41 40 40 46 51 56 60 63 66 68 70 74 80 85 90 96 99 98 99 90 79 78 72 65 57 52 52 56 59 63 67 69 69 69
34 35 36 39 41 41 40 38 36 37 42 46 53 57 60 62 64 66 69 72 78 84 89 94 98 98 99 93 81 78 74 65 59 52 51 52 55 59 63 66 67 68 68
38 41 42 42 40 36 34 35 38 42 47 53 56 59 62 63 64 67 71 76 81 87 92 96 97 99 97 83 79 78 68 59 51 49 50 50 54 58 61 63 66 67 68
37 36 36 36 36 35 36 40 43 48 53 57 58 59 60 62 65 68 73 78 83 89 93 95 97 99 88 80 81 76 61 54 46 46 48 48 53 56 58 63 66 69 69
32 32 33 34 35 37 40 44 49 53 59 61 60 59 62 63 66 71 75 80 85 91 95 95 99 92 82 83 80 69 55 48 43 42 44 45 50 56 60 64 65 66 68
29 31 34 36 39 41 44 50 54 58 60 60 59 61 63 65 69 74 79 82 87 92 93 97 95 84 85 82 72 61 48 43 37 38 40 44 50 55 59 63 65 66 66
32 35 38 40 42 45 49 53 56 60 59 59 60 62 64 67 71 75 79 83 88 91 94 96 86 85 84 74 65 55 40 36 30 33 38 43 50 55 59 62 65 65 65
37 40 42 43 45 49 52 56 59 60 60 61 62 64 66 69 73 77 81 84 88 90 94 89 84 84 76 65 57 44 33 26 24 31 37 43 49 54 58 61 62 63 63
40 42 43 45 47 50 53 58 61 61 63 64 65 66 69 73 75 79 81 85 87 90 92 82 82 76 64 54 44 32 23 21 27 34 41 47 51 54 57 60 61 62 63
Wind_Direction
242 255 257 255 261 247 264 260 263 262 265 264 267 266 269 277 278 286 299 296 295 298 300 303 306 308 308 307 305 305 306 307 307 307 307 306 304 303 302 301 301 300 298
239 240 238 248 240 251 260 269 261 265 265 262 273 276 275 281 298 297 293 297 298 303 306 308 308 307 306 306 307 309 309 308 307 307 306 305 305 304 303 303 302 301 300
242 239 252 248 245 259 270 259 261 255 263 269 270 278 297 298 293 297 298 301 305 307 308 307 305 305 307 307 309 310 309 308 308 307 306 306 305 305 305 304 303 302 300
240 240 248 258 260 262 261 254 259 261 265 269 289 293 287 295 297 297 302 305 307 307 306 305 307 307 307 309 309 310 310 309 308 307 307 307 308 306 306 305 304 304 302
236 244 256 254 255 252 246 247 261 272 284 288 286 291 295 295 300 304 306 307 308 307 307 307 309 310 310 309 310 310 310 309 309 309 308 308 308 308 307 306 306 304 304
246 248 243 242 237 237 250 269 281 277 285 291 291 294 297 302 304 307 308 309 310 310 308 309 311 311 310 310 310 310 309 310 310 310 310 311 311 310 309 308 307 306 305
242 233 228 228 236 256 270 275 277 286 286 289 297 302 304 305 307 308 310 311 310 310 311 312 311 310 311 311 311 311 311 313 313 313 313 313 312 311 311 311 310 309 307
202 214 232 255 272 275 268 279 281 290 298 303 305 304 306 308 309 310 311 310 311 312 313 313 312 312 312 312 315 315 314 314 315 315 315 315 315 314 313 312 311 310 309
209 238 255 264 274 277 280 290 297 299 302 305 305 307 309 310 308 310 311 312 314 313 313 313 313 312 315 317 314 314 317 317 317 317 317 316 316 316 315 314 313 312 310
275 279 279 279 284 291 294 296 299 303 305 306 307 309 309 310 311 312 313 313 313 313 315 315 315 317 316 314 317 319 320 320 319 319 318 318 318 317 316 315 314 316 317
263 272 279 289 295 296 299 303 304 307 309 311 310 311 311 312 312 313 313 313 314 315 315 315 316 316 318 320 321 322 321 320 320 320 320 319 319 318 318 319 321 326 329
291 293 296 298 300 303 305 310 312 314 311 310 311 311 312 313 315 314 314 314 314 314 315 316 319 320 321 321 321 321 321 322 322 323 322 321 320 321 322 325 330 333 332
304 302 304 307 306 307 309 311 313 310 310 311 311 313 314 314 314 314 314 313 313 316 318 320 321 321 321 321 322 323 323 324 325 324 323 322 324 324 324 328 329 331 332
308 307 303 307 313 314 313 311 310 311 311 314 316 315 314 313 312 314 314 315 318 320 321 322 322 321 322 323 324 325 325 326 325 325 324 325 324 326 328 333 335 334 333
310 316 319 319 317 313 312 312 312 314 316 315 313 312 312 313 314 315 318 320 321 321 322 323 323 323 323 324 326 326 326 326 325 325 325 325 325 329 330 331 334 337 336
319 318 315 310 310 312 314 316 318 315 312 312 311 312 315 317 318 320 320 320 321 322 324 324 324 324 324 326 327 327 326 325 326 326 325 325 328 330 331 332 334 336 338
320 317 316 317 319 321 319 315 312 310 311 312 316 317 317 318 319 320 321 322 323 324 324 325 326 326 328 327 327 327 325 327 326 325 324 323 326 328 330 332 335 336 338
325 326 325 323 319 317 316 315 315 315 316 318 317 317 318 320 321 321 322 323 323 324 325 326 328 329 328 326 327 325 326 326 324 323 321 321 325 327 330 334 337 337 338
324 324 325 325 323 320 319 318 319 318 317 316 318 319 321 321 321 322 323 322 323 325 326 327 329 329 328 327 325 326 326 323 320 320 319 320 324 327 334 339 340 339 339
326 326 325 324 321 318 318 318 316 316 318 320 322 323 322 321 322 323 323 323 324 326 327 329 330 329 328 326 326 325 324 319 316 317 317 320 325 330 337 341 342 342 341
326 324 323 323 323 321 317 316 317 319 321 323 324 322 322 322 322 323 324 324 326 326 328 330 329 328 327 326 324 323 320 315 312 316 318 321 328 333 336 338 342 342 343
331 330 327 320 316 315 316 317 319 321 323 324 324 323 322 320 320 323 324 325 327 329 330 330 329 327 326 325 323 321 317 312 310 315 322 327 331 333 335 339 342 341 341
330 325 319 315 316 317 319 321 323 324 324 323 322 321 320 320 320 322 323 326 329 331 331 330 329 327 327 326 325 322 317 312 310 315 322 329 332 334 335 340 341 341 340
323 317 314 315 315 317 320 322 324 323 321 321 320 319 318 319 320 322 324 328 331 332 331 330 329 329 328 327 325 323 317 312 308 315 324 331 333 333 335 339 340 340 341
315 314 314 313 315 319 321 323 323 322 321 319 319 319 319 320 322 324 327 330 332 331 331 331 331 330 329 328 328 327 323 317 316 321 327 332 332 331 334 338 339 339 341
313 314 315 315 316 319 320 323 326 323 322 322 321 320 320 321 323 325 329 331 331 332 333 332 332 330 329 329 332 333 331 325 328 329 332 333 332 331 333 336 337 339 339
Height
5695 5698 5700 5701 5701 5701 5703 5702 5702 5701 5698 5697 5695 5691 5688 5686 5682 5679 5676 5670 5664 5660 5656 5650 5645 5638 5631 5623 5617 5609 5600 5592 5584 5576 5565 5555 5546 5537 5530 5522 5512 5503 5494
5688 5688 5690 5692 5692 5694 5694 5693 5692 5690 5688 5688 5686 5683 5679 5677 5672 5668 5663 5658 5654 5650 5645 5639 5632 5624 5617 5609 5601 5593 5584 5574 5565 5557 5546 5537 5527 5519 5510 5500 5490 5481 5473
5677 5680 5682 5681 5685 5686 5684 5682 5681 5680 5679 5678 5676 5673 5670 5666 5661 5658 5654 5649 5644 5639 5633 5626 5618 5611 5602 5595 5586 5577 5567 5556 5545 5537 5528 5517 5506 5495 5487 5478 5471 5462 5453
5668 5671 5673 5675 5677 5674 5674 5674 5673 5671 5671 5669 5667 5664 5660 5656 5652 5648 5643 5637 5632 5626 5619 5612 5604 5596 5588 5580 5570 5559 5547 5537 5527 5517 5507 5496 5485 5475 5465 5457 5451 5439 5430
5659 5664 5666 5666 5665 5665 5666 5665 5664 5664 5664 5660 5657 5655 5652 5647 5642 5637 5631 5625 5619 5612 5605 5597 5589 5582 5573 5564 5553 5540 5529 5519 5508 5496 5485 5476 5465 5454 5444 5433 5423 5413 5401
5653 5653 5653 5656 5658 5658 5658 5658 5658 5657 5654 5653 5651 5647 5643 5637 5632 5626 5620 5614 5606 5599 5591 5584 5576 5567 5558 5547 5534 5523 5515 5502 5489 5477 5467 5455 5443 5430 5418 5405 5392 5381 5373
5641 5644 5646 5649 5651 5651 5650 5651 5650 5649 5647 5644 5641 5636 5631 5625 5620 5614 5607 5601 5594 5586 5578 5568 5560 5552 5540 5530 5520 5506 5494 5483 5472 5457 5445 5431 5419 5402 5389 5375 5358 5345 5329
5636 5637 5639 5642 5643 5644 5646 5646 5645 5642 5639 5635 5631 5625 5620 5614 5608 5602 5594 5587 5580 5571 5561 5554 5544 5534 5525 5514 5500 5488 5479 5467 5456 5440 5422 5406 5390 5374 5356 5340 5325 5312 5295
5633 5635 5637 5639 5640 5640 5639 5637 5635 5633 5628 5625 5620 5616 5610 5604 5599 5591 5583 5575 5565 5558 5550 5540 5528 5519 5505 5492 5488 5476 5462 5447 5434 5417 5400 5383 5366 5347 5326 5310 5294 5277 5264
5630 5632 5633 5634 5634 5634 5633 5630 5626 5622 5620 5615 5610 5605 5600 5592 5586 5578 5569 5560 5553 5546 5535 5523 5514 5499 5489 5480 5468 5454 5441 5427 5411 5398 5382 5364 5345 5325 5305 5286 5268 5252 5233
5625 5627 5628 5628 5627 5626 5624 5621 5617 5614 5609 5604 5600 5595 5588 5582 5574 5566 5557 5549 5540 5528 5518 5509 5499 5487 5475 5461 5446 5433 5419 5406 5390 5374 5359 5341 5323 5305 5286 5267 5248 5232 5217
5624 5624 5624 5622 5620 5617 5614 5611 5608 5603 5600 5595 5590 5584 5577 5569 5562 5554 5546 5535 5524 5516 5506 5494 5484 5471 5458 5443 5429 5415 5400 5384 5368 5351 5334 5318 5303 5286 5269 5254 5238 5222 5202
5618 5618 5616 5615 5614 5611 5608 5605 5600 5597 5592 5587 5580 5572 5566 5557 5550 5542 5533 5523 5514 5503 5492 5481 5468 5455 5441 5427 5411 5396 5380 5363 5346 5331 5315 5299 5284 5270 5257 5246 5232 5217 5199
5614 5613 5612 5610 5608 5605 5601 5597 5593 5588 5582 5574 5568 5561 5554 5547 5539 5531 5524 5512 5499 5490 5479 5466 5452 5439 5424 5410 5394 5376 5360 5343 5328 5312 5298 5283 5271 5259 5246 5234 5222 5207 5192
5610 5608 5606 5603 5600 5597 5592 5588 5582 5576 5570 5564 5559 5552 5545 5538 5530 5520 5511 5500 5488 5475 5464 5451 5438 5423 5408 5391 5374 5357 5341 5325 5311 5296 5283 5272 5259 5248 5235 5222 5209 5196 5178
5604 5602 5599 5596 5593 5588 5582 5577 5572 5567 5562 5555 5550 5543 5536 5527 5517 5507 5496 5485 5475 5465 5452 5439 5424 5408 5392 5374 5358 5340 5323 5310 5295 5282 5270 5260 5249 5238 5227 5213 5199 5184 5168
5599 5596 5593 5588 5582 5578 5574 5569 5565 5559 5553 5548 5541 5533 5525 5517 5506 5495 5484 5473 5461 5450 5437 5422 5407 5391 5373 5356 5340 5323 5309 5295 5281 5269 5259 5249 5240 5229 5217 5205 5191 5175 5161
5591 5587 5583 5580 5576 5571 5567 5562 5557 5552 5546 5539 5532 5524 5515 5505 5494 5483 5472 5461 5449 5435 5421 5406 5389 5373 5356 5339 5322 5308 5294 5281 5269 5259 5249 5240 5232 5222 5210 5196 5181 5166 5151
5585 5581 5576 5571 5567 5564 5559 5555 5550 5544 5538 5530 5522 5513 5504 5493 5483 5472 5461 5449 5435 5421 5405 5389 5373 5356 5338 5321 5307 5293 5280 5269 5259 5249 5240 5232 5223 5213 5201 5187 5173 5157 5142
5578 5574 5570 5566 5562 5558 5553 5547 5541 5536 5529 5520 5511 5501 5491 5481 5470 5459 5447 5435 5421 5406 5390 5373 5356 5339 5321 5305 5292 5279 5266 5256 5248 5240 5232 5224 5215 5204 5193 5180 5166 5152 5137
5573 5569 5565 5561 5556 5550 5545 5540 5533 5526 5518 5509 5501 5491 5480 5469 5458 5446 5433 5420 5407 5391 5375 5357 5339 5321 5304 5291 5277 5264 5253 5244 5237 5231 5223 5215 5206 5196 5184 5172 5159 5145 5130
5566 5562 5559 5554 5549 5544 5538 5531 5524 5516 5508 5498 5488 5478 5468 5457 5445 5433 5420 5406 5392 5376 5359 5341 5323 5304 5289 5275 5261 5248 5239 5231 5226 5221 5215 5207 5198 5187 5177 5165 5154 5139 5125
5560 5556 5551 5547 5541 5535 5528 5521 5514 5505 5495 5485 5476 5466 5455 5444 5433 5421 5407 5393 5377 5360 5342 5324 5306 5290 5274 5258 5244 5232 5225 5219 5215 5212 5206 5199 5190 5180 5170 5159 5147 5135 5121
5553 5548 5543 5538 5532 5526 5519 5511 5502 5492 5482 5473 5464 5454 5444 5433 5422 5409 5395 5380 5363 5346 5327 5310 5292 5275 5258 5243 5230 5220 5213 5209 5206 5203 5198 5192 5183 5173 5163 5153 5141 5129 5117
5547 5541 5535 5529 5523 5516 5509 5500 5491 5482 5473 5463 5453 5442 5431 5420 5408 5395 5381 5366 5351 5334 5315 5295 5277 5261 5245 5231 5220 5210 5205 5201 5199 5196 5192 5185 5176 5166 5157 5147 5136 5125 5112
5539 5533 5527 5520 5513 5506 5498 5490 5481 5471 5461 5451 5440 5429 5418 5407 5394 5382 5368 5353 5337 5320 5301 5282 5265 5248 5235 5224 5214 5206 5201 5197 5194 5189 5184 5177 5168 5159 5150 5140 5130 5119 5109